You are here:
  • Home »
  • Tender »
  • Open Tender Enquiry

Open Tender Enquiry

4500-4401 4400-4301 4300-4201 4200-4101 4100-4001 4000-3901 3900-3801 3800-3701 3700-3601
3600-3501 3500-3401 3400-3301 3300-3201 3200-3101 3100-3001 3000-2901 2900-2801
2800-2701 2700-2601 2600-2501 2500-2401 2400-2301 2300-2201 2200-2101 2100-2001
2000-1901 1900-1801 1800-1701 1700-1601 1600-1501 1500-1401 1400-1301 1300-1201
1200-1101 1100-1001 1000-901 900-801 800-701 700-601 600-501 500-401
400-301 300-201 200-101 100-1 1300-1251 1250-1201 1200-1151 1150-1101
1100-1051 1050-1001 1000-951 950-901 900-851 850-801 800-751 750-701
700-651 650-601 600-551 550-501 500-451 450-401 400-351 350-301
300-251 250-201 200-151 150-101 100-51 50-01

Sl.No. Enquiry No. Date Due on Short Description
4301 1-PE180474 28.03.2018 27.04.2018 Induction Motor
4302 1-PE180498-1- 31.03.2018 01.05.2018 110 volts AC coils
4303 1-PE180513-1 03.04.2018 04.05.2018 Induction Motor
4304 1-PE180515-1 04.04.2018 04.05.2018 CYGNUS812 CU LAN Extended with 4port switch 230VAC
4305 1-PE180516-1 05.04.2018 01.05.2018
SLIP RING UNIT
4306 3-PE180517-1- 05.04.2018 01.05.2018 Auxiliary Hoist spares (CAP-5T) for Double girder EOT craneBottom cross bar
4307 1/PE180763/8 10.05.2018 15.05.2018 Flokleen
4308 1/PE180765/8 10.05.2018 15.05.2018 Pheno-chem
4309 1/PE180766/8 10.05.2018 15.05.2018 Solvay
4310 1/PE180890/8 10.05.2018 15.05.2018 Coir Brush
4311 1/PE180900/8 10.05.2018 15.05.2018 Print Head
4312 1/PE180901/8 10.05.2018 15.05.2018 Xerox Paper
4313 1/PE180902/8 10.05.2018 15.05.2018 Terminal Block
4314 1/PE180908/8 10.05.2018 15.05.2018 Bearing
4314 1/PE180913/8 10.05.2018 15.05.2018 Server P.C
4315 1 /PE180914/8 10.05.2018 15.05.2018 Contact Block
4316 1/PE180886/8 10.05.2018 16.05.2018 Printing Items
4317 1/PE180888/8 10.05.2018 16.05.2018 Twist Dril Bit
4318 1/PE180889/8 10.05.2018 16.05.2018 Printing Items
4319 1/PE180891/8 10.05.2018 16.05.2018 Welding Machine
4320 1/PE180892/8 10.05.2018 16.05.2018 Preventor
4321 1/PE180894/8 10.05.2018 16.05.2018 Printing Items
4322 1/PE180895/8 10.05.2018 16.05.2018 Gland Cable
4323 1/PE180896/8 10.05.2018 16.05.2018 Drum
4324 1/PE180897/8 10.05.2018 16.05.2018 G.I.Wire
4325 1/PE180898/8 10.05.2018 16.05.2018 Printing Items
4326 1/PE180452/1 11.04.2018 17.05.2018 Cable
4327

1/PE180453/1

11.04.2018 17.05.2018 Fuse
4328 1/PE180454/1 11.04.2018 17.05.2018 Power Supply Card
4329 1/PE180456/1 11.04.2018 17.05.2018 Envelope
4330 1/PE180458/1 11.04.2018 17.05.2018 Ladder
4331 1/PE180459/1 11.04.2018 17.05.2018 MCB
4332 1/PE180460/1 11.04.2018 17.05.2018 Power Card
4333 1/PE180463/1 11.04.2018 17.05.2018 Castable whytheat
4334 1/PE180464/1 11.04.2018 17.05.2018 Sanitary Item
4335 1/PE180465/1 11.04.2018 17.05.2018 PVC Cistern
4336 2/PE180612/8 02/04/2018 07/05/2018 Surge Protection Device
2/PE180612/8 07/05/2018 20/06/2018 Surge Protection Device
4337 1-PE180467-1- 28.03.2018 27.04.2018 Twin light Switch
4338 1-PE180468-1 28.03.2018 01.05.2018 Cable ties
4339 2-PE180464-1 28.03.2018 27.04.2018 Temperature Sensor
4340 2-PE180490-1 30.03.2018 01.05.2018 Turbidity meter
4341 2-PE180491 30.03.2018 27.04.2018 Hydro meter/Carboy Polythene
4342 3-PE180478-1 10.04.2018 01.05.2018 Forklift Spares
4343 3-PE180514-1 04.04.2018 27.04.2018 Spares of Hydra crane of Make M/s ESCORTS and HY-12 model
4344 2-PE180377-1Corrigendum-1 10.04.2018 17.04.2018 Polyethene bags
4345 TMPL-PUR-022-531-168-Corrigendum-1 10.04.2018 17.04.2018 Complete set of Atomizer
4346 1-PE180520-1 07.04.2018 17.04.2018 Spares for METSO Pump
4347 2-PE180419-1 04.04.2018 27.04.2018 Flow Control Valve
4348 2-PE180480-1 29.03.2018 01.05.2018 Spares for Grundfos make pumps
4349 2-PE180481-1 29.03.2018 01.05.2018 Thermal Imaging Camera along with true clamp meter
4350 2-PE180482-1 01.04.2018 01.05.2018 Pressure relief valve
4351 2-PE180483-1- 29.03.2018 27.04.2018 Micro Ohm Meter
4352 2-PE180489-1 29.03.2018 27.04.2018 ON/OFF knife edge Pneumatic gate valves
4353 2-PE180500-1 02.04.2018 04.05.2018 Separating funnel shaker
4354 2-PE180510-1 03.04.2018 04.05.2018 SS304 Ball valve
4355 2-PE180518-1 05.04.2018 17.04.2018 Sulphuric Acid
4356 3-PE180486-1 29.03.2018 01.05.2018 Engine For Hindustan make pay loader
4357 3-PE180492-1 30.03.2018 01.05.2018 Spares for bottom block assembly
4358 3-PE180508-1 03.04.2018 04.05.2018 Complete Grease pump with drive cylinder
4359 3-PE180509-1 03.04.2018 04.05.2018 Electric Chain hoist
4360 TMPL/PUR/003/376/167

Corrigendum-1
10.04.2018 20.04.2018 Pitman with shaft assembly,bearing assembly
4361 3/PE180574/8 03/04/2018 03/05/2018 ELBOW
4362 3/PE180216/7 04/04/2018 07/05/2018 MCB
4363 3/PE180285/1 04/04/2018 07/05/2018 AUTO WIRE CORE
4364 3/PE180224/7 04/04/2018 07/05/2018 SAFETY SHOE
4365 3/PE180428/1 04/04/2018 07/05/2018 VANE ANEMOMETER DAVIS USA
4366 3/PE180211/7 04/04/2018 07/05/2018 SHOCK ABSORBER
4367 3/PE180279/1 04/04/2018 07/05/2018 SALWOOD PLANKS
4368 3/PE180290/1 03/04/2018 03/05/2018 THINNER GENERAL
4369 3/PE180296/1 03/04/2018 03/05/2018 INDUCTIVE PROXIMITY SWITCH
4370 3/PE180222/7 03/04/2018 03/05/2018 FUEL CONTROL NOZZLE
4371 3/PE180215/7 03/04/2018 03/05/2018 CONTACTOR
4372 3/PE180219/7 03/04/2018 03/05/2018 INSULATING VARNISH
4373 3/PE180223/7 03/04/2018 03/05/2018 CAP LAMP BELT
4374 3/PE180220/7 03/04/2018 03/05/2018 FLAP
4375 3/PE180221/7 03/04/2018 03/05/2018 SAFETY BARRICADING TAPE
4376 3/PE180172/8 04/04/2018 07/05/2018 NYLON BRAIDED PVC HOSE PIPE
4377 3/PE180845/8 04/04/2018 07/05/2018 SPARES FOR ROCKET BOOMER 281
4378 3/PE172415/8 03/04/2018 03/05/2018 DRIVE LINE
4379 3/PE180027/7 01/02/2018 10/05/2018 DRIVE LINE ASSY.
4380 3/PE172170/8 09/04/2018 10/05/2018 SPARE FOR DIAMEC 232
4381 3/PE180626/8 09/04/2018 10/05/2018 RANDOM ORBIT SANDER
4382 3/PE180284/1 09/04/2018 10/05/2018 CARTRIDGE
4383 3/PE180293/1 09/04/2018 10/05/2018 A.C.90 LIQUID MAINTENANCE CO2
4384 3/PE180294/1 09/04/2018 10/05/2018 PAINT
4385 3/PE180295/1 09/04/2018 10/05/2018 ROTARY CAM SWITCH
4386 3/PE180617/8 09/04/2018 10/05/2018 GASKET CYLINDER HEAD
4387 3/PE180292/1 09/04/2018 10/05/2018 LETHER CROME HAND GLOVES
4388 3/PE180212/7 09/04/2018 10/05/2018 CARBON BRUSH
4389 3/PE180291/1 09/04/2018 10/05/2018 COIL
4390 3/PE180213/7 09/04/2018 10/05/2018 SPARES FOR ST 710
4391 3/PE180209/7 09/04/2018 10/05/2018 PRESSURE REGULATING VALVE
4392 2-PE180419-1 04.04.2018 27.04.2018 FLOW CONTROL VALVE
4393 2-PE180480-1 29.03.2018 01.05.2018 Shaft seal kit HQQE
4394 2-PE180482-1 01.04.2018 01.05.2018 Pressure Relief Valve
4395 2-PE180483-1- 29.03.2018 27.04.2018 Micro ohm meter
4396 2-PE180489-1 29.03.2018 27.04.2018 Supply of on/off Knife Edge Pneumatic Gate Valve
4397 2-PE180500-1 02.04.2018 04.05.2018 SEPERATING FUNNEL SHAKER
4398 2-PE180510-1 03.04.2018 04.05.2018 BALL VALVE SIZE
4399 2-PE180518-1 05.04.2018 17.04.2018 SULPHURIC ACID
4400 3-PE180486-1 29.03.2018 01.05.2018 Engine for M/s Hindusthan make

pay loader